[[{"header":{"parameterUnit":"m.s-1","parameterCategory":1,"la1":30.2991,"la2":30.254,"lo1":-89.0895,"lo2":-89.0444,"dy":0.0017,"dx":0.0017,"nx":28,"ny":28,"refTime":"2025-11-22T03:00:00:Z","depth":0,"parameterNumber":2,"parameterNumberName":"U-component_of_WINDS"},"data":[0,0,0,0,0,0,0,0,0,0,0,0,0,0,0,0,0,0,0,0,0,0,0,0,0,0,0,0,0,0,0,0,0,0,0,0,0,0,0,0,0,0,0,0,0,0,0,0,0,0,0,0,0,0,0,0,0,0,-0.2214,-0.2215,0,-0.2247,-0.2247,-0.2247,-0.2254,-0.2253,-0.2253,-0.2253,-0.2288,-0.2289,-0.229,0,0,0,0,0,0,0,0,0,0,0,0,0,-0.2159,-0.216,-0.2214,-0.2215,-0.2215,-0.2246,-0.2247,-0.2247,-0.2254,-0.2253,-0.2253,-0.2253,-0.2287,-0.2289,-0.229,0,0,0,0,0,0,0,0,0,0,0,0,0,-0.2186,-0.216,-0.2214,-0.2222,-0.2223,-0.2246,-0.2247,-0.2247,-0.2254,-0.2253,-0.2253,-0.2253,-0.2287,-0.2288,-0.229,-0.2308,0,0,-0.2295,-0.2296,0,0,0,0,0,0,0,0,-0.2185,-0.2188,-0.222,-0.2221,-0.2223,-0.2246,-0.224,-0.2268,-0.2254,-0.2242,-0.2253,-0.2253,-0.2274,-0.2277,-0.2284,-0.231,-0.2312,-0.2296,-0.2297,-0.2297,-0.2298,0,0,0,0,0,0,0,-0.2183,-0.2187,-0.2227,-0.2221,-0.2222,-0.2224,-0.2228,-0.2245,-0.226,-0.2243,-0.2244,-0.2247,-0.2275,-0.2282,-0.2285,-0.2312,-0.2296,-0.2297,-0.2298,-0.2299,-0.2355,-0.2355,0,0,0,0,0,0,-0.2179,-0.2185,-0.2226,-0.2228,-0.2202,-0.2225,-0.2229,-0.2239,-0.226,-0.2263,-0.2248,-0.2248,-0.2279,-0.2283,-0.2286,-0.2309,-0.2297,-0.2299,-0.23,-0.2354,-0.2355,-0.2356,0,0,0,0,0,0,-0.2178,-0.2183,-0.2225,-0.2207,-0.2212,-0.2227,-0.2237,-0.224,-0.2247,-0.2263,-0.2266,-0.2253,-0.2279,-0.2283,-0.2303,-0.231,-0.23,-0.2301,-0.2354,-0.2355,-0.2355,-0.2355,0,0,0,0,0,0,-0.2176,-0.2182,-0.2189,-0.2207,-0.2213,-0.2241,-0.2238,-0.224,-0.225,-0.225,-0.2268,-0.2271,-0.2279,-0.23,-0.2304,-0.2312,-0.2303,-0.2353,-0.2354,-0.2355,-0.2354,-0.2356,-0.2356,0,0,0,0,0,-0.2174,-0.2188,-0.219,-0.2195,-0.2222,-0.2241,-0.2245,-0.2253,-0.225,-0.2258,-0.2268,-0.2271,-0.2308,-0.2302,-0.2307,-0.2316,-0.2353,-0.2354,-0.2355,-0.2354,-0.2355,-0.2356,0,0,0,0,0,0,-0.2172,-0.2191,-0.2193,-0.2212,-0.2225,-0.2242,-0.2252,-0.2255,-0.2269,-0.2268,-0.2279,-0.2283,-0.2301,-0.231,-0.2303,-0.2334,-0.2331,-0.2333,-0.2328,-0.2329,-0.233,-0.2328,-0.2304,0,0,0,0,0,-0.2174,-0.2187,-0.2203,-0.2219,-0.2225,-0.2237,-0.2246,-0.2251,-0.2265,-0.2271,-0.2282,-0.2296,-0.2311,-0.232,-0.2335,-0.2355,-0.236,-0.2364,-0.2365,-0.2365,-0.2367,-0.2379,-0.2381,-0.2359,-0.2359,-0.2359,0,0,-0.2178,-0.219,-0.2198,-0.2219,-0.2229,-0.2243,-0.2242,-0.2257,-0.2268,-0.2273,-0.2292,-0.2301,-0.2317,-0.2336,-0.2346,-0.2344,-0.2374,-0.2367,-0.2367,-0.2369,-0.238,-0.2382,-0.2384,-0.236,-0.2359,-0.2359,0,0,-0.2192,-0.2202,-0.2217,-0.2227,-0.2242,-0.225,-0.2254,-0.227,-0.2276,-0.2295,-0.2299,-0.2312,-0.2338,-0.2349,-0.2358,-0.2375,-0.2378,-0.2379,-0.2385,-0.2396,-0.2398,-0.24,-0.2406,-0.2409,-0.2381,-0.2381,-0.2381,0,-0.2195,-0.2217,-0.2224,-0.2239,-0.2248,-0.2253,-0.2268,-0.2277,-0.2297,-0.2303,-0.2301,-0.2333,-0.2344,-0.2366,-0.237,-0.2377,-0.2382,-0.2378,-0.2397,-0.2399,-0.24,-0.2407,-0.2409,-0.2381,-0.2381,-0.2381,-0.2381,0,-0.222,-0.2234,-0.2244,-0.2262,-0.2273,-0.2287,-0.2297,-0.2307,-0.2311,-0.2319,-0.2338,-0.2351,-0.2368,-0.2374,-0.2378,-0.2397,-0.2395,-0.2395,-0.2392,-0.2403,-0.2409,-0.2411,-0.2381,-0.2381,-0.2381,-0.2381,0,0,-0.2235,-0.2256,-0.226,-0.2268,-0.2285,-0.2297,-0.2311,-0.2328,-0.2336,-0.2349,-0.2362,-0.2383,-0.2382,-0.2392,-0.2398,-0.2407,-0.2421,-0.2406,-0.2406,-0.2409,-0.2442,-0.2443,-0.2446,-0.2422,-0.2423,-0.2423,-0.2441,0,-0.2252,-0.2278,-0.2285,-0.2308,-0.2321,-0.2325,-0.2338,-0.235,-0.2358,-0.237,-0.2379,-0.2394,-0.2392,-0.2398,-0.2407,-0.2417,-0.2428,-0.2416,-0.2435,-0.2436,-0.2432,-0.2449,-0.245,-0.2467,-0.2444,-0.2444,-0.2444,0,-0.2276,-0.2289,-0.2313,-0.2327,-0.2333,-0.2345,-0.236,-0.2372,-0.2385,-0.239,-0.2401,-0.2405,-0.2421,-0.2416,-0.2438,-0.2429,-0.2437,-0.2443,-0.2444,-0.2447,-0.2441,-0.2453,-0.2472,-0.2475,-0.2448,-0.2448,-0.2448,0,-0.2286,-0.2309,-0.2326,-0.2333,-0.235,-0.2358,-0.2366,-0.2379,-0.2388,-0.2401,-0.2407,-0.2422,-0.2431,-0.2442,-0.2451,-0.2446,-0.2472,-0.2467,-0.2477,-0.2477,-0.2483,-0.2483,-0.2505,-0.2487,-0.2487,-0.2487,-0.2487,0,-0.2305,-0.2319,-0.233,-0.2341,-0.2357,-0.2365,-0.2381,-0.2389,-0.24,-0.2412,-0.2416,-0.2428,-0.2438,-0.2451,-0.2457,-0.2475,-0.2478,-0.2483,-0.2485,-0.2483,-0.2483,-0.249,-0.2489,-0.2487,-0.2487,-0.2487,-0.2487,0,-0.2319,-0.2327,-0.2346,-0.236,-0.2364,-0.2376,-0.2388,-0.2399,-0.2406,-0.2421,-0.2426,-0.2437,-0.2452,-0.2461,-0.2481,-0.2485,-0.2505,-0.2506,-0.25,-0.2501,-0.251,-0.251,-0.2538,-0.2542,-0.2521,-0.2521,-0.2521,0,-0.2331,-0.2342,-0.2357,-0.2366,-0.2373,-0.2387,-0.2396,-0.2403,-0.2412,-0.2428,-0.2437,-0.2452,-0.2465,-0.249,-0.25,-0.2515,-0.2517,-0.2525,-0.2519,-0.2517,-0.2518,-0.2517,-0.2518,-0.2527,-0.2527,-0.2527,-0.2527,0,-0.2352,-0.2355,-0.2368,-0.2382,-0.2392,-0.2404,-0.2415,-0.2422,-0.2431,-0.2441,-0.2457,-0.2467,-0.2486,-0.2502,-0.2517,-0.2526,-0.2528,-0.2529,-0.2532,-0.2531,-0.2528,-0.253,-0.2504,-0.2529,-0.2528,-0.2528,-0.2528,-0.2528,-0.2366,-0.2376,-0.2388,-0.2402,-0.2411,-0.2421,-0.2432,-0.244,-0.2453,-0.2469,-0.2472,-0.2489,-0.2501,-0.2523,-0.2531,-0.2544,-0.2543,-0.2547,-0.2548,-0.255,-0.255,-0.2525,-0.2547,-0.2547,-0.2547,-0.2547,-0.2547,0,-0.2387,-0.2395,-0.2408,-0.2423,-0.2434,-0.2435,-0.2447,-0.2456,-0.2471,-0.2482,-0.2494,-0.2512,-0.2526,-0.2537,-0.2552,-0.2561,-0.2562,-0.2565,-0.2565,-0.2567,-0.255,-0.2546,-0.2563,-0.2563,-0.2563,-0.2563,-0.2563,-0.2563,-0.24,-0.2417,-0.2422,-0.2443,-0.2451,-0.2466,-0.2474,-0.2483,-0.2492,-0.2512,-0.2524,-0.253,-0.2541,-0.2557,-0.2571,-0.2573,-0.2579,-0.2581,-0.2585,-0.2569,-0.2568,-0.2566,-0.2563,-0.2582,-0.2582,-0.26,-0.26,-0.26]},{"header":{"parameterUnit":"m.s-1","parameterCategory":1,"la1":30.2991,"la2":30.254,"lo1":-89.0895,"lo2":-89.0444,"dy":0.0017,"dx":0.0017,"nx":28,"ny":28,"refTime":"2025-11-22T03:00:00:Z","depth":0,"parameterNumber":3,"parameterNumberName":"V-component_of_WINDS"},"data":[0,0,0,0,0,0,0,0,0,0,0,0,0,0,0,0,0,0,0,0,0,0,0,0,0,0,0,0,0,0,0,0,0,0,0,0,0,0,0,0,0,0,0,0,0,0,0,0,0,0,0,0,0,0,0,0,0,0,-4.1641,-4.1642,0,-4.1674,-4.1675,-4.1675,-4.1632,-4.163,-4.1629,-4.1627,-4.1657,-4.1659,-4.1662,0,0,0,0,0,0,0,0,0,0,0,0,0,-4.1537,-4.1539,-4.1641,-4.1642,-4.1642,-4.1674,-4.1675,-4.1675,-4.1632,-4.163,-4.1629,-4.1627,-4.1656,-4.1659,-4.1662,0,0,0,0,0,0,0,0,0,0,0,0,0,-4.1578,-4.154,-4.1641,-4.1625,-4.1624,-4.1674,-4.1675,-4.1675,-4.1633,-4.163,-4.1628,-4.1626,-4.1656,-4.1659,-4.1662,-4.1729,0,0,-4.1672,-4.1674,0,0,0,0,0,0,0,0,-4.1575,-4.1581,-4.1627,-4.1626,-4.1625,-4.1647,-4.1649,-4.1693,-4.1633,-4.1629,-4.1627,-4.1625,-4.1655,-4.1659,-4.167,-4.1731,-4.1732,-4.1673,-4.1675,-4.1676,-4.1677,0,0,0,0,0,0,0,-4.1573,-4.158,-4.1654,-4.1627,-4.1626,-4.1614,-4.1618,-4.1657,-4.1655,-4.1629,-4.1626,-4.1631,-4.1654,-4.1667,-4.167,-4.1732,-4.1673,-4.1676,-4.1678,-4.1679,-4.1851,-4.1854,0,0,0,0,0,0,-4.1572,-4.1578,-4.1653,-4.1655,-4.1594,-4.1618,-4.1622,-4.1642,-4.1654,-4.1654,-4.1633,-4.1629,-4.1662,-4.1666,-4.1671,-4.1751,-4.1676,-4.1679,-4.1681,-4.1849,-4.1852,-4.1854,0,0,0,0,0,0,-4.157,-4.1579,-4.1652,-4.1616,-4.1624,-4.1623,-4.1646,-4.1644,-4.1656,-4.1657,-4.1656,-4.1646,-4.166,-4.1666,-4.1716,-4.1752,-4.1681,-4.1684,-4.1846,-4.1849,-4.1853,-4.1912,0,0,0,0,0,0,-4.1567,-4.1579,-4.1605,-4.1617,-4.1626,-4.1697,-4.1648,-4.1646,-4.1663,-4.1658,-4.1669,-4.1669,-4.1659,-4.1711,-4.1719,-4.1755,-4.1686,-4.1842,-4.1847,-4.1852,-4.1907,-4.1918,-4.1927,0,0,0,0,0,-4.1564,-4.1619,-4.1607,-4.1616,-4.1659,-4.1699,-4.1704,-4.1693,-4.1666,-4.1692,-4.1692,-4.1668,-4.1746,-4.1716,-4.1725,-4.1763,-4.184,-4.1846,-4.1851,-4.1903,-4.1915,-4.1926,0,0,0,0,0,0,-4.161,-4.162,-4.1607,-4.1668,-4.1683,-4.1692,-4.1724,-4.1707,-4.173,-4.1724,-4.1707,-4.171,-4.1764,-4.1768,-4.1734,-4.1829,-4.1788,-4.1796,-4.1824,-4.1837,-4.1846,-4.1844,-4.1689,0,0,0,0,0,-4.1628,-4.1661,-4.1667,-4.172,-4.1729,-4.1726,-4.1743,-4.1733,-4.1748,-4.1753,-4.1758,-4.1772,-4.18,-4.1818,-4.1844,-4.1907,-4.1909,-4.1937,-4.1947,-4.1955,-4.1962,-4.1997,-4.201,-4.1873,-4.1873,-4.1873,0,0,-4.1664,-4.1673,-4.1695,-4.173,-4.1741,-4.1775,-4.1731,-4.1768,-4.1793,-4.1759,-4.1806,-4.181,-4.1825,-4.1882,-4.1907,-4.1887,-4.2001,-4.1963,-4.1969,-4.1972,-4.2004,-4.2017,-4.2029,-4.1877,-4.1877,-4.1876,0,0,-4.1747,-4.1758,-4.1804,-4.1816,-4.1834,-4.1832,-4.1843,-4.1855,-4.1856,-4.1904,-4.188,-4.1908,-4.1956,-4.1968,-4.198,-4.207,-4.2049,-4.2078,-4.213,-4.2164,-4.2175,-4.2184,-4.2217,-4.2229,-4.2085,-4.2085,-4.2085,0,-4.1789,-4.1841,-4.1829,-4.1869,-4.1885,-4.1858,-4.1904,-4.1916,-4.194,-4.1952,-4.1929,-4.199,-4.1998,-4.2058,-4.208,-4.2091,-4.2103,-4.2077,-4.2174,-4.2184,-4.2192,-4.2223,-4.2235,-4.2089,-4.2088,-4.2088,-4.2088,0,-4.1892,-4.1928,-4.1963,-4.199,-4.201,-4.2053,-4.2047,-4.2068,-4.2057,-4.2057,-4.2106,-4.2115,-4.2142,-4.2156,-4.2144,-4.2215,-4.2202,-4.2177,-4.2136,-4.2209,-4.2238,-4.225,-4.2094,-4.2093,-4.2092,-4.2091,0,0,-4.2004,-4.2026,-4.2039,-4.2052,-4.207,-4.2097,-4.2138,-4.2167,-4.2186,-4.2204,-4.2238,-4.228,-4.2258,-4.2272,-4.2262,-4.2292,-4.2363,-4.2263,-4.2263,-4.2282,-4.2442,-4.2462,-4.2475,-4.235,-4.2352,-4.2353,-4.2441,0,-4.2089,-4.2163,-4.2154,-4.2224,-4.2258,-4.2232,-4.2268,-4.2283,-4.2284,-4.2312,-4.2312,-4.2343,-4.231,-4.2319,-4.2347,-4.2349,-4.2395,-4.2342,-4.2381,-4.2382,-4.2379,-4.249,-4.251,-4.2593,-4.2453,-4.2454,-4.2456,0,-4.2197,-4.2221,-4.2295,-4.231,-4.2324,-4.2357,-4.2383,-4.241,-4.2426,-4.2424,-4.2441,-4.2426,-4.2467,-4.2425,-4.2481,-4.2445,-4.2461,-4.2464,-4.2466,-4.247,-4.2424,-4.2498,-4.2619,-4.2632,-4.2473,-4.2472,-4.2471,0,-4.2273,-4.2324,-4.2375,-4.2387,-4.2405,-4.2429,-4.2437,-4.2451,-4.2469,-4.2491,-4.2503,-4.2529,-4.2543,-4.2563,-4.2555,-4.2526,-4.2614,-4.2571,-4.2613,-4.2614,-4.2633,-4.2632,-4.2759,-4.2642,-4.2642,-4.2642,-4.2641,0,-4.2368,-4.2415,-4.241,-4.2442,-4.2493,-4.2483,-4.2533,-4.2538,-4.2551,-4.2583,-4.2561,-4.2591,-4.2578,-4.2607,-4.2601,-4.2649,-4.2655,-4.2655,-4.2652,-4.2657,-4.2657,-4.2667,-4.2661,-4.2645,-4.2644,-4.2643,-4.2643,0,-4.2462,-4.2461,-4.2515,-4.2529,-4.2533,-4.257,-4.2581,-4.2611,-4.261,-4.2651,-4.2659,-4.2659,-4.2692,-4.2686,-4.2721,-4.2717,-4.2777,-4.2768,-4.2773,-4.2771,-4.2814,-4.281,-4.2952,-4.2971,-4.2841,-4.2842,-4.2843,0,-4.2523,-4.2559,-4.2577,-4.2598,-4.2608,-4.2641,-4.266,-4.2651,-4.2672,-4.2694,-4.2721,-4.2752,-4.2777,-4.283,-4.2832,-4.2859,-4.285,-4.2898,-4.2854,-4.2858,-4.2852,-4.2851,-4.2854,-4.2907,-4.2909,-4.291,-4.2911,0,-4.2632,-4.263,-4.266,-4.269,-4.2714,-4.2736,-4.2756,-4.2774,-4.2766,-4.279,-4.2825,-4.2844,-4.2882,-4.2913,-4.2939,-4.2946,-4.2928,-4.2925,-4.2936,-4.2942,-4.2944,-4.2944,-4.2797,-4.2922,-4.2921,-4.292,-4.2919,-4.2919,-4.2712,-4.2743,-4.2762,-4.2795,-4.281,-4.283,-4.2859,-4.2863,-4.2892,-4.2923,-4.2916,-4.2955,-4.297,-4.3003,-4.3014,-4.3043,-4.3025,-4.3042,-4.3046,-4.305,-4.3056,-4.2939,-4.3048,-4.3047,-4.3047,-4.3047,-4.3047,0,-4.2821,-4.2832,-4.2863,-4.2894,-4.292,-4.2902,-4.2924,-4.2947,-4.2982,-4.2999,-4.3024,-4.3064,-4.3095,-4.31,-4.3129,-4.3152,-4.3144,-4.316,-4.3158,-4.316,-4.307,-4.3058,-4.3166,-4.3166,-4.3166,-4.3166,-4.3166,-4.3166,-4.2881,-4.2933,-4.2934,-4.2993,-4.3003,-4.3043,-4.3057,-4.3075,-4.3089,-4.3135,-4.3161,-4.3165,-4.3177,-4.3207,-4.3234,-4.3234,-4.3246,-4.3266,-4.3263,-4.3178,-4.3167,-4.3155,-4.3144,-4.3268,-4.3268,-4.3351,-4.3352,-4.3352]}]]